Location: Dal�� Lhota
(48.7500°N, 14.0167°E)
Time: 22:31:32
(UTC+00:00)

Lacrosse 5 rocket - Pass Details

Date: 24 September 2020
Orbit: 460 x 636 km, 57.0° (Epoch: 24 October)

Event Time Altitude Azimuth Distance (km) Brightness Sun altitude
Rises 20:52:57 0° 304° (NW) 2,858 5.9 -35.4°
Reaches altitude 10° 20:55:13 10° 303° (WNW) 1,973 4.8 -35.6°
Enters shadow 20:56:15 17° 301° (WNW) 1,579 4.2 -35.7°
